This is the latest recevied weather packets stored in our database for station/object K5IDL. If no packets are shown the sender has not sent any weather packets the latest 10 day(s).
| Time | Temp. | Humidity | Pressure | Rain* | Wind** | Luminosity | Snow |
|---|---|---|---|---|---|---|---|
| 1788698827 | 27.22° C | 84% | 1015.2 hPa | 0 mm | - | 27 W/m² | - |
| 1788698522 | 26.11° C | 89% | 1015.1 hPa | 0 mm | - | 22 W/m² | - |
| 1788698221 | 25.56° C | 89% | 1015.3 hPa | 0 mm | - | 15 W/m² | - |
| 1788697916 | 25.56° C | 89% | 1015.1 hPa | 0 mm | - | 12 W/m² | - |
| 1788697619 | 25.56° C | 89% | 1015.1 hPa | 0 mm | - | 10 W/m² | - |
| 1788697311 | 25.56° C | 89% | 1015 hPa | 0 mm | - | 7 W/m² | - |
| 1788697008 | 25.56° C | 89% | 1015.1 hPa | 0 mm | - | 5 W/m² | - |
| 1788696703 | 25.56° C | 89% | 1014.8 hPa | 0 mm | - | 3 W/m² | - |
| 1788696399 | 25.56° C | 89% | 1014.9 hPa | 0 mm | - | 2 W/m² | - |
| 1788696096 | 25.56° C | 89% | 1014.7 hPa | 0 mm | - | 1 W/m² | - |
| 1788695791 | 25.56° C | 89% | 1014.8 hPa | 0 mm | - | 1 W/m² | - |
| 1788695486 | 25.56° C | 90% | 1014.6 hPa | 0 mm | - | 0 W/m² | - |
| 1788695179 | 25.56° C | 88% | 1014.5 hPa | 0 mm | - | 0 W/m² | - |
| 1788694875 | 25.56° C | 88% | 1014.6 hPa | 0 mm | - | 0 W/m² | - |
| 1788694575 | 25.56° C | 88% | 1014.8 hPa | 0 mm | - | 0 W/m² | - |
| 1788694275 | 26.11° C | 88% | 1014.6 hPa | 0 mm | - | 0 W/m² | - |
| 1788693974 | 26.11° C | 87% | 1014.4 hPa | 0 mm | - | 0 W/m² | - |
| 1788693671 | 26.11° C | 87% | 1014.4 hPa | 0 mm | - | 0 W/m² | - |
| 1788693370 | 26.11° C | 87% | 1014.4 hPa | 0 mm | - | 0 W/m² | - |
| 1788693066 | 26.11° C | 87% | 1014.5 hPa | 0 mm | - | 0 W/m² | - |
| 1788692766 | 26.11° C | 87% | 1014.3 hPa | 0 mm | - | 0 W/m² | - |
| 1788692461 | 25.56° C | 88% | 1014.3 hPa | 0 mm | - | 0 W/m² | - |
| 1788692155 | 26.11° C | 88% | 1014.3 hPa | 0 mm | - | 0 W/m² | - |
| 1788691851 | 26.11° C | 87% | 1014.2 hPa | 0 mm | - | 0 W/m² | - |
| 1788691550 | 26.11° C | 87% | 1014.3 hPa | 0 mm | - | 0 W/m² | - |
* Rain latest hour (hover to see other rain measurements)
** Current wind speed in m/s (hover to see current wind gust speed)